RH
30 33 41 54 68 98 60 41 20 8 3 3 3 4 4 4 5 5 8 10 10 9 9 13 11 12 17 20 18 16 17 20 19 29 29 27 27 25 27 24 22 18 15 15
30 35 38 59 58 81 94 55 21 7 4 3 3 4 4 5 5 6 8 12 14 13 14 17 21 19 22 21 24 24 29 24 29 32 32 32 33 30 28 25 24 21 19 19
29 32 43 60 63 66 77 45 18 8 4 3 3 4 5 5 6 7 10 11 15 17 18 20 27 28 29 31 37 44 46 46 42 44 49 41 40 37 32 31 30 26 26 21
26 31 41 55 73 92 82 52 14 9 3 2 3 4 5 5 6 7 10 12 16 18 24 26 26 32 32 36 44 48 56 56 56 59 61 65 66 66 60 50 39 35 38 28
28 26 41 54 74 89 57 29 12 6 4 2 3 4 5 6 6 8 10 16 18 24 25 31 35 34 36 42 45 56 68 67 70 80 77 87 92 79 70 66 66 61 39 34
28 25 39 50 81 91 77 58 12 5 4 3 3 4 5 6 7 8 10 17 21 28 33 36 39 42 44 45 48 53 68 77 91 88 92 97 86 90 92 83 82 73 70 61
26 25 38 61 72 76 56 36 30 10 5 4 3 4 5 6 7 8 10 15 24 30 37 40 44 45 46 49 50 49 55 71 84 78 88 88 89 84 87 94 90 83 84 72
21 28 31 52 71 64 50 39 18 9 5 5 4 5 5 6 7 8 10 13 21 36 37 40 46 48 52 51 56 58 56 59 62 71 83 85 94 88 89 85 78 76 81 72
21 24 24 56 59 57 50 32 18 10 5 5 5 6 6 6 7 8 9 12 17 34 40 42 44 49 51 52 59 68 71 70 65 64 75 94 83 87 83 78 74 76 75 80
19 25 35 50 43 66 44 38 17 7 4 5 5 6 7 7 7 8 10 11 19 24 43 47 50 59 65 70 74 79 76 76 78 77 78 75 77 79 82 92 85 82 83 86
18 21 24 42 53 50 39 30 20 6 5 5 6 6 8 8 8 8 10 11 13 24 41 55 61 62 70 76 82 87 85 85 82 83 79 81 80 82 86 85 95 97 90 84
9 22 25 35 59 46 47 37 16 5 5 5 6 7 8 8 8 8 10 12 14 19 35 53 65 72 75 83 88 88 94 89 92 90 89 82 80 79 88 92 89 92 98 100
12 17 25 42 42 34 41 25 11 5 5 5 6 7 7 8 9 8 10 12 15 18 24 42 70 77 80 80 78 86 85 82 86 87 88 90 90 93 88 87 96 99 91 93
9 17 24 32 32 33 36 30 11 6 6 5 7 7 8 8 9 10 10 10 14 17 21 31 53 75 72 76 76 77 86 83 76 82 79 88 88 90 97 98 98 96 98 99
11 16 14 29 41 47 43 32 6 6 6 6 7 7 8 8 9 11 11 11 12 16 20 25 40 58 73 74 74 80 90 93 82 74 82 87 87 99 100 100 100 97 90 92
10 15 16 25 37 44 30 22 6 6 6 6 7 7 9 8 9 10 11 13 13 16 20 26 29 46 62 75 76 78 98 100 98 89 94 98 100 100 100 100 100 100 98 96
34 16 12 24 35 33 43 8 7 6 6 7 7 8 9 8 9 10 13 13 14 16 20 24 26 30 53 68 74 88 99 100 100 99 100 100 100 100 100 100 100 99 99 100
13 14 17 24 33 47 61 9 8 6 7 7 7 8 9 9 9 10 12 13 15 16 18 21 25 28 34 61 56 98 94 100 100 100 100 99 100 100 100 100 94 93 94 96
25 11 25 34 37 29 44 9 8 7 7 7 8 8 9 10 10 12 13 14 16 17 19 19 24 28 30 24 57 79 83 96 100 100 100 98 96 98 96 96 94 93 96 90
14 15 14 28 34 36 10 9 8 8 7 8 8 8 9 10 11 13 15 15 17 18 17 19 26 28 26 27 28 76 75 74 89 97 100 97 90 91 92 87 86 83 79 80
25 14 13 38 37 19 10 9 8 7 7 8 8 9 10 11 12 14 15 16 17 19 17 20 24 26 23 26 22 21 68 70 62 72 87 94 92 89 89 88 86 80 76 79
24 19 23 33 46 19 10 8 8 7 8 8 9 10 11 10 12 13 16 17 18 20 17 20 26 17 20 19 17 18 38 95 89 73 71 84 92 91 90 90 88 86 80 85
21 12 20 21 30 11 9 8 8 7 8 9 9 11 13 12 12 14 16 18 19 19 22 22 21 18 16 14 13 14 21 86 93 88 86 81 79 88 88 88 86 90 88 96
16 14 14 18 14 9 8 7 7 7 9 10 10 12 12 14 16 16 18 18 20 23 21 20 19 18 17 17 17 17 19 36 81 94 85 82 80 79 79 79 84 87 91 92
12 12 14 12 12 9 7 6 7 8 9 10 11 12 12 14 17 18 21 22 23 20 18 18 21 21 21 22 23 22 23 29 42 62 80 81 80 79 79 82 82 79 80 87
8 14 10 12 10 7 6 6 6 7 10 11 12 13 14 16 17 20 22 22 20 18 18 21 26 26 26 25 25 26 27 32 39 42 40 37 42 54 66 71 74 79 82 81
10 10 10 10 7 6 5 6 6 8 10 11 13 14 16 18 20 22 21 20 19 20 20 26 28 28 27 28 30 30 30 32 33 33 31 29 27 25 26 28 34 47 63 76
Wind_Speed
90 95 96 102 104 121 118 105 96 83 78 80 70 63 58 54 50 46 37 30 25 16 12 15 12 10 8 10 10 13 16 23 26 30 35 41 44 43 44 47 48 50 50 54
90 93 95 103 97 116 131 117 94 78 73 74 66 60 54 49 45 42 36 25 19 14 9 11 14 15 13 13 8 10 12 12 16 21 25 30 31 34 36 35 36 38 39 43
90 90 99 109 102 106 119 115 99 79 73 69 62 55 49 46 40 37 33 25 15 11 6 9 12 14 14 15 14 13 13 13 12 12 16 17 21 21 24 26 29 32 36 40
86 93 101 107 107 115 113 110 92 80 69 67 57 50 44 41 36 32 28 23 15 9 6 5 8 11 14 15 14 14 12 12 12 12 15 15 17 18 20 24 27 30 36 38
88 90 99 104 110 123 111 103 85 66 64 65 55 48 40 35 31 29 24 19 13 7 3 2 3 7 11 12 13 14 13 13 13 13 14 17 20 20 22 23 25 28 34 38
93 87 96 94 107 119 118 105 78 64 63 64 54 46 39 30 26 24 21 15 11 6 3 1 4 7 10 13 16 17 17 16 16 17 19 20 23 22 21 23 24 27 30 37
88 80 101 110 104 112 105 97 85 73 64 58 52 43 38 29 24 21 18 13 9 7 4 4 6 8 11 13 15 17 20 21 21 21 20 21 23 25 26 27 28 30 32 34
86 85 103 105 120 110 108 97 80 70 61 53 48 40 36 27 22 20 17 13 10 11 9 8 8 9 12 13 14 16 18 23 26 27 25 24 24 26 28 30 32 31 35 37
91 91 98 109 109 104 103 99 91 74 56 49 42 37 33 27 21 18 18 14 13 13 12 11 11 11 11 11 13 15 17 19 22 25 29 32 29 25 26 26 27 34 35 39
89 107 104 113 105 111 101 95 85 67 58 45 39 34 30 24 21 18 18 17 15 14 13 14 14 12 12 13 14 15 16 18 20 21 24 25 27 26 26 27 28 29 32 37
98 99 103 111 108 107 100 98 84 64 57 47 40 32 26 22 21 19 18 19 17 16 17 16 16 17 16 16 16 17 18 19 19 19 21 22 24 24 26 28 29 30 32 32
95 102 101 101 111 107 109 104 81 59 51 48 42 33 27 22 20 20 19 18 19 19 18 18 17 18 20 21 21 21 21 22 22 22 22 23 24 25 29 29 30 33 32 33
97 93 101 105 105 101 101 96 73 55 48 44 41 35 27 21 19 21 20 20 20 22 21 21 20 20 22 24 24 24 23 23 22 23 23 24 24 23 24 28 32 33 33 34
96 101 97 102 104 95 103 94 74 59 49 41 38 34 27 23 20 19 23 20 20 22 23 24 24 23 23 24 24 25 24 25 24 23 23 22 23 23 24 25 27 30 35 37
104 113 85 109 104 110 104 92 62 57 49 41 36 31 27 22 19 21 23 21 21 21 24 25 27 26 25 25 25 26 25 25 24 24 20 20 18 19 20 21 23 26 28 31
108 99 95 102 107 118 105 89 58 52 46 38 35 28 26 23 21 23 23 22 22 23 23 25 27 29 28 27 28 27 26 27 26 24 23 21 20 20 18 18 18 19 20 22
131 111 83 111 106 104 119 78 56 49 44 36 34 28 26 23 22 23 25 24 23 23 23 26 25 29 32 30 31 30 31 31 30 30 28 27 24 24 23 23 23 23 22 22
114 107 108 101 102 115 124 80 62 50 42 35 33 29 25 23 22 23 24 24 24 25 25 26 26 27 33 38 29 35 37 36 35 35 35 32 30 30 29 29 30 30 30 30
129 106 112 105 110 108 100 72 63 51 40 34 31 29 23 21 21 22 23 23 25 24 27 26 26 29 34 36 35 40 42 41 40 41 40 38 34 33 32 31 30 32 34 34
123 107 101 101 114 117 75 66 59 48 38 33 30 28 23 21 22 23 24 23 23 26 27 26 28 33 31 33 38 44 46 46 45 44 44 43 38 36 35 32 30 32 35 37
128 105 91 117 112 101 76 62 52 43 37 31 30 27 24 23 24 25 24 24 24 26 25 26 29 36 28 34 36 43 47 46 46 47 46 44 42 39 37 34 30 30 33 36
124 102 106 108 116 90 70 56 46 39 35 31 28 27 25 24 26 26 24 24 24 28 27 25 31 30 28 32 34 36 43 44 48 47 45 45 44 42 40 37 33 31 34 37
113 95 95 105 105 75 63 51 42 36 33 31 27 25 24 24 25 26 24 24 27 26 28 30 30 29 28 29 32 34 40 44 45 45 44 44 45 45 44 41 39 34 38 42
96 111 98 106 83 70 56 45 39 34 31 30 28 25 24 24 25 25 25 25 26 29 30 29 27 25 25 26 29 32 36 39 42 44 43 43 40 41 43 44 45 43 40 45
102 89 107 81 72 62 50 41 38 33 30 30 28 25 24 24 25 25 25 27 30 31 29 27 23 25 25 26 27 30 33 37 39 40 43 44 42 40 39 42 44 46 47 46
79 106 79 69 65 53 44 38 37 31 30 29 28 26 25 24 25 25 28 29 30 29 27 23 25 27 27 27 26 27 31 35 38 39 39 38 38 41 43 45 46 46 47 49
99 82 68 65 57 46 41 37 36 32 30 30 28 27 25 26 26 29 29 30 28 26 25 24 27 27 26 26 27 27 29 31 33 35 35 35 35 36 40 44 45 47 49 49
Wind_Direction
341 346 344 347 351 353 348 347 342 343 342 339 341 344 344 344 348 353 359 358 6 13 57 62 66 80 119 143 136 169 170 175 187 190 196 204 211 215 218 222 226 227 224 223
339 347 346 348 349 355 353 346 343 343 340 337 339 341 342 342 346 349 353 359 6 13 60 82 86 98 101 117 132 141 156 172 179 188 198 205 210 212 220 221 222 222 221 222
337 343 346 349 347 346 349 348 342 340 338 334 337 340 340 339 342 344 348 351 2 23 48 96 108 110 112 113 114 125 131 148 151 160 177 191 196 203 210 216 216 216 216 216
336 339 342 344 351 351 350 351 350 341 336 335 333 337 338 336 337 340 341 341 349 6 38 82 130 135 134 134 137 142 149 151 146 148 156 176 186 192 201 207 211 211 211 212
336 338 346 344 354 352 350 354 349 343 332 333 329 334 336 332 332 333 333 331 337 344 15 69 137 160 157 154 159 160 168 167 163 166 172 176 189 198 199 200 204 211 215 212
338 341 346 347 352 351 352 346 350 341 333 325 326 330 331 330 326 325 324 321 316 321 322 209 186 186 187 181 179 178 178 182 188 196 187 189 194 196 197 199 204 206 209 213
335 342 344 348 348 353 351 344 342 340 332 324 321 326 326 326 320 314 311 307 288 271 229 216 212 206 206 196 196 196 190 191 196 200 198 200 201 202 202 202 206 211 208 214
336 339 343 345 352 347 346 344 337 338 333 325 318 321 321 320 313 307 302 297 266 238 236 216 207 208 206 203 198 205 211 208 206 204 203 206 207 208 209 213 213 210 213 213
336 338 343 350 349 348 349 345 337 331 331 326 317 318 318 314 307 299 294 286 269 231 223 220 212 209 213 213 206 209 214 217 220 214 209 208 208 209 212 214 216 215 214 214
334 341 344 343 345 351 347 345 339 338 330 325 317 317 313 308 300 293 284 276 268 254 230 216 212 210 210 208 214 215 216 216 216 214 215 217 213 207 205 205 206 206 212 217
334 341 343 345 347 345 343 344 337 337 332 322 317 315 307 300 292 283 275 272 267 252 229 221 219 213 206 206 207 209 211 214 216 217 214 216 216 214 211 208 207 211 213 217
332 342 341 345 347 346 345 343 334 333 331 322 317 313 305 299 292 278 267 263 261 253 239 227 224 222 217 209 212 217 219 216 215 219 219 218 217 214 213 214 212 211 210 210
329 339 340 344 342 345 343 344 336 331 331 322 316 309 302 292 276 270 260 250 249 251 247 234 224 224 223 218 215 212 210 212 208 215 216 217 218 218 216 215 216 218 217 214
329 333 339 338 340 340 343 343 336 330 327 319 313 308 299 286 273 266 256 251 245 245 245 239 229 223 223 219 214 211 207 210 211 207 210 211 214 215 217 217 217 218 220 221
334 338 339 345 340 335 337 338 332 329 324 317 312 304 294 285 271 255 251 247 242 241 243 240 237 231 224 219 214 208 208 214 217 219 208 208 206 208 214 218 221 224 224 222
330 334 333 338 339 340 336 336 332 328 321 317 309 301 290 280 265 253 251 243 241 238 241 240 238 236 230 221 214 211 210 213 220 221 214 211 208 212 213 218 219 220 222 224
326 330 337 335 340 341 343 334 330 325 320 316 305 297 285 274 262 250 244 242 241 240 238 240 241 239 235 227 215 212 211 215 217 219 216 215 213 216 217 220 223 223 222 222
328 326 328 340 341 343 339 330 326 323 320 313 303 295 285 276 266 254 246 241 241 240 238 240 240 240 238 235 223 213 212 215 218 218 217 218 221 225 227 229 231 231 231 229
323 328 331 333 335 337 332 327 321 319 317 308 300 291 279 271 262 253 248 241 240 242 241 242 242 242 240 241 230 222 217 214 217 219 220 223 225 227 228 231 234 233 232 230
321 333 340 327 334 338 330 324 318 313 312 302 292 285 275 263 257 250 247 242 240 242 242 242 242 245 246 245 234 231 228 220 217 220 222 226 229 230 232 234 237 234 232 230
319 323 335 337 335 332 326 320 313 309 305 296 288 282 270 261 253 247 244 242 242 245 245 244 246 250 250 250 246 236 231 237 231 223 223 227 230 232 235 238 241 239 232 225
319 321 330 330 328 325 319 315 308 304 299 290 285 280 272 262 253 250 245 246 244 246 249 248 251 258 259 249 242 238 227 230 236 236 231 230 232 234 235 237 239 238 230 220
318 322 331 328 325 318 314 310 304 298 291 285 279 270 264 262 255 251 248 246 245 251 251 252 257 256 253 246 237 229 223 222 231 238 240 238 237 238 238 237 236 235 228 224
319 315 322 325 317 313 310 305 299 290 281 277 272 267 260 253 252 252 249 248 249 250 251 253 255 251 246 241 235 230 226 227 229 234 239 242 243 240 240 240 237 234 232 230
320 322 319 319 310 309 305 301 294 281 273 270 268 263 255 252 249 248 249 246 246 248 251 254 253 251 246 242 238 234 231 231 233 236 239 242 245 245 244 242 242 241 239 235
315 316 314 308 305 304 300 296 286 272 266 262 260 256 249 247 247 243 242 243 247 251 253 252 246 244 241 238 236 234 233 235 238 242 245 247 246 245 245 244 242 241 241 241
313 310 304 302 301 298 297 290 278 264 259 255 250 245 242 243 241 240 241 243 247 249 249 243 240 239 239 236 235 234 234 237 240 244 248 251 251 249 246 244 243 242 241 241